Showing default

GSTAR 3, 19483

Orbit data source: Space-Track

GSTAR 3, 19483 is a payload satellite owned by GTE (US) in GEO that was launched on Thu, 08 Sep 1988 UTC via an ARIANE 3 launch vehicle from the French Guiana (FRGUI). Payload-class satellites include a variety of spacecraft equipped with specific instruments for various scientific and technological missions. These include communications satellites like Starlink; space stations such as the ISS; scientific satellites like the Hubble; Earth observation satellites from companies like Planet Labs, Umbra, and HawkEye 360; GPS; miniature CubeSats for education and research; and military/defense satellites.

Loading next visibility...
Identifier
19483, 1988-081A
Orbit
GEO
Country
Flag of USUS
Related business
Manufacturer
GE/East Windsor
Mission
Commercial Communications
Bus & Motor
AS3000, TE-M-700-17
Mass
1,243 kg wet, ~370 kg dry
Launch date (UTC)
1988-09-08 (37 years ago)
Launch vehicle
ARIANE 3
Launch site
French Guiana (FRGUI)
Object type
Payload
Rocket body
Debris
Shape & HBR
Box + 2 Pan, 7.2 m
Radar Cross Section
6.702 m², Large (>1 m²)

Expand to show TLE details & history
Last TLE update: 16 hours ago

TLE from 16 hours ago
0 GSTAR 3
1 19483U 88081A   25312.58175382 -.00000117  00000-0  00000+0 0  9991
2 19483  11.4669 320.0475 0007615 221.5468 330.6850  1.00272205132383
Epoch: 2025-11-08T13:57Z
TLE epoch observation values (Epoch: 2025-11-08T13:57:43.530Z)
Latitude
-2.42144°
Longitude
-105.45528°
Altitude
35,758.462 km
Speed
3.077 km/s
True Right ascension
10h 07m 56s
True Declination
-2° 25' 08"
Sunlit
Object was in daylight at epoch
Visualization orbit readout
Latitude
Unknown
Longitude
Unknown
Altitude
Unknown
Speed
Unknown
Apparent Right ascension
Unknown
Apparent Declination
Unknown
Sunlit
N/A
Visualization observer readout
Local Sidereal Time
02:38:05
Azimuth
Unknown
Elevation
Unknown
Doppler factor
Unknown
Orbital elements
Apogee altitude
35,819.595 km
Perigee altitude
35,755.377 km
Semi-major axis
42,165.623 km
Eccentricity
0.00076
Inclination
11.4669°
RAAN
320.0475°
Arg. of periapsis
221.5468°
True anomaly
330.64224°
Mean anomaly
330.685°
Eccentric anomaly
330.66362°
Mean motion
0.25067 °/min
Orbital period
1,436.14 mins
BSTAR
0
Loading maneuver chart data...
Computing Atmospheric mass density...
Loading historical data...
Loading historical data...
Loading historical data...
Loading historical data...
Loading historical data...
Loading historical data...
Loading historical data...

Documentation

Showing up to 5 results
|